Location: The Saddle
(36.8333°N, 80.3417°W)
Time: 11:03:33
(UTC-05:00)

Transit 4A - Visible Passes

Search period start: 11 December 2023 00:00
Search period end: 21 December 2023 00:00
Orbit: 865 x 978 km, 66.8° (Epoch: 11 December)

Date Brightness Start Highest point End Pass type
(mag) Time Alt. Az. Time Alt. Az. Time Alt. Az.
11 Dec 9.7 04:10:25 23° SE 04:10:25 23° SE 04:12:28 10° SE visible
11 Dec 9.6 05:53:59 14° WSW 05:53:59 14° WSW 05:55:28 10° SW visible
11 Dec 8.5 19:04:12 10° SW 19:10:28 57° WNW 19:14:25 23° NNE visible
11 Dec 10.6 20:56:34 10° NW 20:57:57 11° NW 20:57:57 11° NW visible
12 Dec 9.9 04:20:21 17° SSE 04:20:21 17° SSE 04:21:34 10° SSE visible
12 Dec 8.7 17:27:50 10° S 17:33:29 34° ESE 17:39:06 10° NE visible
12 Dec 9.1 19:13:48 10° WSW 19:19:43 39° NW 19:23:53 18° N visible
13 Dec 10.2 04:30:16 10° S 04:30:16 10° S 04:30:22 10° S visible
13 Dec 8.3 17:36:18 10° S 17:42:26 51° ESE 17:48:33 10° NE visible
13 Dec 9.7 19:23:41 10° WSW 19:29:02 28° NW 19:33:16 14° N visible
14 Dec 8.0 17:45:06 10° SSW 17:51:29 77° ESE 17:57:49 10° NNE visible
14 Dec 10.1 19:33:59 10° W 19:38:28 20° NW 19:42:36 11° N visible
15 Dec 8.2 17:54:12 10° SSW 18:00:35 74° WNW 18:06:56 10° NNE visible
15 Dec 10.3 19:44:50 10° WNW 19:48:00 14° NW 19:51:10 10° NNW visible
16 Dec 8.8 18:03:35 10° SW 18:09:46 50° WNW 18:15:54 10° NNE visible
17 Dec 9.4 18:13:16 10° WSW 18:19:02 35° NW 18:24:46 10° N visible
18 Dec 9.8 18:23:17 10° WSW 18:28:23 25° NW 18:33:28 10° N visible
19 Dec 10.2 18:33:43 10° W 18:37:51 18° NW 18:41:57 10° N visible
20 Dec 10.3 18:44:51 10° WNW 18:47:25 12° NW 18:49:57 10° NNW visible
